,,,PA_Meas_PMT16A,,PR_Meas_QMR101_102,,RH_Meas_QMH101,,SR_Meas_QMS101,,TA_Meas_QMH101,,GenWind,,GenWind,
date,time,status,PA,status,PR,status,RH,status,SR,status,TA,status,DirAvg,status,SpdAvg,
2010-09-10, 00:00:05,VALID,1000.88,VALID,0,VALID,86.6725,VALID,0,VALID,23.8183,VALID,146,VALID,0.777734,
2010-09-10, 00:01:05,VALID,1000.87,VALID,0,VALID,86.6801,VALID,0,VALID,23.8201,VALID,146,VALID,0.41875,
2010-09-10, 00:02:05,VALID,1000.84,VALID,0,VALID,86.7717,VALID,0,VALID,23.8183,VALID,146,VALID,0.396484,
2010-09-10, 00:03:05,VALID,1000.85,VALID,0,VALID,86.642,VALID,0,VALID,23.7988,VALID,142,VALID,0.4375,
2010-09-10, 00:04:05,VALID,1000.82,VALID,0,VALID,86.7488,VALID,0,VALID,23.8378,VALID,132,VALID,0.533203,
2010-09-10, 00:05:05,VALID,1000.85,VALID,0,VALID,86.9777,VALID,0,VALID,23.8378,VALID,132,VALID,0.606641,
2010-09-10, 00:06:05,VALID,1000.83,VALID,0,VALID,87.0616,VALID,0,VALID,23.8201,VALID,132,VALID,0.489062,
2010-09-10, 00:07:05,VALID,1000.81,VALID,0,VALID,87.1455,VALID,0,VALID,23.8183,VALID,132,VALID,0.503125,
2010-09-10, 00:08:05,VALID,1000.8,VALID,0,VALID,87.1989,VALID,0,VALID,23.7988,VALID,132,VALID,0.383984,
2010-09-10, 00:09:05,VALID,1000.78,VALID,0,VALID,87.3057,VALID,0,VALID,23.7793,VALID,132,VALID,0.214844,
2010-09-10, 00:10:05,VALID,1000.8,VALID,0,VALID,87.4812,VALID,0,VALID,23.7597,VALID,132,VALID,0.177734,
2010-09-10, 00:11:05,VALID,1000.8,VALID,0,VALID,87.6186,VALID,0,VALID,23.7225,VALID,132,VALID,0,
2010-09-10, 00:12:05,VALID,1000.77,VALID,0,VALID,87.8093,VALID,0,VALID,23.6817,VALID,132,VALID,0.255078,
2010-09-10, 00:13:05,VALID,1000.77,VALID,0,VALID,87.9771,VALID,0,VALID,23.6622,VALID,132,VALID,0.29375,
2010-09-10, 00:14:05,VALID,1000.78,VALID,0,VALID,88.0382,VALID,0,VALID,23.6427,VALID,132,VALID,0.138672,
2010-09-10, 00:15:05,VALID,1000.75,VALID,0,VALID,88.145,VALID,0,VALID,23.6232,VALID,132,VALID,0,
2010-09-10, 00:16:05,VALID,1000.76,VALID,0,VALID,88.2442,VALID,0,VALID,23.6036,VALID,132,VALID,0,
2010-09-10, 00:17:05,VALID,1000.75,VALID,0,VALID,88.4883,VALID,0,VALID,23.6036,VALID,132,VALID,0.0429688,
2010-09-10, 00:18:05,VALID,1000.74,VALID,0,VALID,88.6638,VALID,0,VALID,23.5646,VALID,132,VALID,0.171875,
2010-09-10, 00:19:05,VALID,1000.75,VALID,0,VALID,88.7783,VALID,0,VALID,23.5646,VALID,132,VALID,0.214844,
2010-09-10, 00:20:05,VALID,1000.72,VALID,0,VALID,88.8927,VALID,0,VALID,23.5646,VALID,132,VALID,0.0640625,
2010-09-10, 00:21:05,VALID,1000.7,VALID,0,VALID,88.9156,VALID,0,VALID,23.5451,VALID,132,VALID,0,
2010-09-10, 00:22:05,VALID,1000.7,VALID,0,VALID,88.9309,VALID,0,VALID,23.5451,VALID,132,VALID,0,
2010-09-10, 00:23:05,VALID,1000.67,VALID,0,VALID,88.8851,VALID,0,VALID,23.5061,VALID,132,VALID,0,
2010-09-10, 00:24:05,VALID,1000.63,VALID,0,VALID,89.0453,VALID,0,VALID,23.4866,VALID,132,VALID,0,
2010-09-10, 00:25:05,VALID,1000.6,VALID,0,VALID,89.2284,VALID,0,VALID,23.4671,VALID,132,VALID,0,
2010-09-10, 00:26:05,VALID,1000.58,VALID,0,VALID,89.3963,VALID,0,VALID,23.4884,VALID,132,VALID,0.15,
2010-09-10, 00:27:05,VALID,1000.56,VALID,0,VALID,89.442,VALID,0,VALID,23.4866,VALID,132,VALID,0.15,
2010-09-10, 00:28:05,VALID,1000.52,VALID,0,VALID,89.4954,VALID,0,VALID,23.4884,VALID,132,VALID,0.114453,
2010-09-10, 00:29:05,VALID,1000.51,VALID,0,VALID,89.4573,VALID,0,VALID,23.4653,VALID,132,VALID,0,
2010-09-10, 00:30:05,VALID,1000.51,VALID,0,VALID,89.5412,VALID,0,VALID,23.4671,VALID,132,VALID,0,
2010-09-10, 00:31:05,VALID,1000.49,VALID,0,VALID,89.6633,VALID,0,VALID,23.4866,VALID,75,VALID,0.562109,
2010-09-10, 00:32:05,VALID,1000.52,VALID,0,VALID,89.732,VALID,0,VALID,23.4866,VALID,42,VALID,0.906641,
2010-09-10, 00:33:05,VALID,1000.5,VALID,0,VALID,90.0143,VALID,0,VALID,23.4848,VALID,41,VALID,1.13008,
2010-09-10, 00:34:05,VALID,1000.56,VALID,0,VALID,90.3347,VALID,0,VALID,23.4866,VALID,49,VALID,1.2918,
2010-09-10, 00:35:05,VALID,1000.54,VALID,0,VALID,90.678,VALID,0,VALID,23.5079,VALID,50,VALID,1.33359,
2010-09-10, 00:36:05,VALID,1000.56,VALID,0,VALID,90.8154,VALID,0,VALID,23.5061,VALID,50,VALID,1.26875,
2010-09-10, 00:37:05,VALID,1000.6,VALID,0,VALID,90.8611,VALID,0,VALID,23.4866,VALID,56,VALID,1.09414,
2010-09-10, 00:38:05,VALID,1000.59,VALID,0,VALID,90.8535,VALID,0,VALID,23.4866,VALID,56,VALID,0.921484,
2010-09-10, 00:39:05,VALID,1000.61,VALID,0,VALID,90.968,VALID,0,VALID,23.4866,VALID,56,VALID,0.832812,
2010-09-10, 00:40:05,VALID,1000.59,VALID,0,VALID,91.1358,VALID,0,VALID,23.4866,VALID,57,VALID,0.872266,
2010-09-10, 00:41:05,VALID,1000.57,VALID,0,VALID,91.3189,VALID,0,VALID,23.4866,VALID,57,VALID,0.874609,
2010-09-10, 00:42:05,VALID,1000.58,VALID,0,VALID,91.4791,VALID,0,VALID,23.5061,VALID,67,VALID,0.964063,
2010-09-10, 00:43:05,VALID,1000.55,VALID,0,VALID,91.4105,VALID,0,VALID,23.4671,VALID,67,VALID,0.817187,
2010-09-10, 00:44:05,VALID,1000.53,VALID,0,VALID,91.2655,VALID,0,VALID,23.4671,VALID,69,VALID,0.898438,
2010-09-10, 00:45:05,VALID,1000.5,VALID,0,VALID,91.1358,VALID,0,VALID,23.4475,VALID,67,VALID,0.905859,
2010-09-10, 00:46:05,VALID,1000.5,VALID,0,VALID,91.0595,VALID,0,VALID,23.428,VALID,62,VALID,1.02305,
2010-09-10, 00:47:05,VALID,1000.49,VALID,0,VALID,91.1206,VALID,0,VALID,23.4085,VALID,58,VALID,1.20664,
2010-09-10, 00:48:05,VALID,1000.47,VALID,0,VALID,91.1663,VALID,0,VALID,23.4085,VALID,58,VALID,1.09453,
2010-09-10, 00:49:05,VALID,1000.48,VALID,0,VALID,91.1816,VALID,0,VALID,23.4103,VALID,56,VALID,0.994922,
2010-09-10, 00:50:05,VALID,1000.48,VALID,0,VALID,91.235,VALID,0,VALID,23.3695,VALID,56,VALID,0.795703,
2010-09-10, 00:51:05,VALID,1000.46,VALID,0,VALID,91.235,VALID,0,VALID,23.3713,VALID,56,VALID,0.641016,
2010-09-10, 00:52:05,VALID,1000.44,VALID,0,VALID,91.2808,VALID,0,VALID,23.3482,VALID,56,VALID,0.551172,
2010-09-10, 00:53:05,VALID,1000.47,VALID,0,VALID,91.2884,VALID,0,VALID,23.35,VALID,56,VALID,0.467578,
2010-09-10, 00:54:05,VALID,1000.42,VALID,0,VALID,91.3266,VALID,0,VALID,23.3287,VALID,56,VALID,0.3375,
2010-09-10, 00:55:05,VALID,1000.45,VALID,0,VALID,91.4105,VALID,0,VALID,23.3287,VALID,56,VALID,0.262891,
2010-09-10, 00:56:05,VALID,1000.44,VALID,0,VALID,91.4105,VALID,0.112286,VALID,23.3092,VALID,56,VALID,0.240625,
2010-09-10, 00:57:05,VALID,1000.43,VALID,0,VALID,91.4105,VALID,0,VALID,23.3092,VALID,57,VALID,0.359766,
2010-09-10, 00:58:05,VALID,1000.45,VALID,0,VALID,91.3723,VALID,0,VALID,23.3305,VALID,57,VALID,0.365234,
2010-09-10, 00:59:05,VALID,1000.43,VALID,0,VALID,91.3418,VALID,0,VALID,23.3092,VALID,57,VALID,0.648438,
2010-09-10, 01:00:05,VALID,1000.42,VALID,0,VALID,91.2884,VALID,0,VALID,23.3092,VALID,57,VALID,0.673828,
2010-09-10, 01:01:05,VALID,1000.44,VALID,0,VALID,91.2503,VALID,0,VALID,23.3092,VALID,57,VALID,0.728125,
2010-09-10, 01:02:05,VALID,1000.43,VALID,0,VALID,91.2197,VALID,0,VALID,23.3092,VALID,57,VALID,0.852344,
2010-09-10, 01:03:05,VALID,1000.42,VALID,0,VALID,91.2045,VALID,0,VALID,23.3287,VALID,57,VALID,0.817187,
2010-09-10, 01:04:05,VALID,1000.39,VALID,0,VALID,91.1358,VALID,0,VALID,23.3092,VALID,57,VALID,0.720703,
2010-09-10, 01:05:05,VALID,1000.35,VALID,0,VALID,91.1053,VALID,0,VALID,23.3092,VALID,57,VALID,0.556641,
2010-09-10, 01:06:05,VALID,1000.35,VALID,0,VALID,91.0824,VALID,0.112286,VALID,23.3092,VALID,57,VALID,0.733984,
2010-09-10, 01:07:05,VALID,1000.32,VALID,0,VALID,91.0748,VALID,0,VALID,23.3127,VALID,57,VALID,0.485938,
2010-09-10, 01:08:05,VALID,1000.26,VALID,0,VALID,91.0519,VALID,0,VALID,23.2719,VALID,57,VALID,0.330859,
2010-09-10, 01:09:05,VALID,1000.26,VALID,0,VALID,91.0824,VALID,0,VALID,23.2719,VALID,57,VALID,0.3625,
2010-09-10, 01:10:04,VALID,1000.25,VALID,0,VALID,91.1282,VALID,0,VALID,23.2329,VALID,57,VALID,0.189063,
2010-09-10, 01:11:04,VALID,1000.22,VALID,0,VALID,91.1663,VALID,0,VALID,23.2134,VALID,57,VALID,0,
2010-09-10, 01:12:04,VALID,1000.22,VALID,0,VALID,91.2503,VALID,0,VALID,23.1939,VALID,57,VALID,0,
2010-09-10, 01:13:04,VALID,1000.21,VALID,0,VALID,91.3952,VALID,0,VALID,23.1744,VALID,57,VALID,0,
2010-09-10, 01:14:04,VALID,1000.17,VALID,0,VALID,91.5554,VALID,0,VALID,23.1531,VALID,57,VALID,0,
2010-09-10, 01:15:04,VALID,1000.17,VALID,0,VALID,91.6775,VALID,0,VALID,23.1939,VALID,57,VALID,0,
2010-09-10, 01:16:04,VALID,1000.16,VALID,0,VALID,91.7614,VALID,0,VALID,23.2134,VALID,57,VALID,0.455859,
2010-09-10, 01:17:04,VALID,1000.16,VALID,0,VALID,91.8225,VALID,0,VALID,23.2134,VALID,57,VALID,0.491016,
2010-09-10, 01:18:04,VALID,1000.16,VALID,0,VALID,91.8377,VALID,0,VALID,23.2524,VALID,57,VALID,0.615234,
2010-09-10, 01:19:04,VALID,1000.17,VALID,0,VALID,91.7767,VALID,0,VALID,23.2932,VALID,57,VALID,0.644531,
2010-09-10, 01:20:04,VALID,1000.14,VALID,0,VALID,91.6623,VALID,0,VALID,23.2719,VALID,63,VALID,0.685156,
2010-09-10, 01:21:04,VALID,1000.12,VALID,0,VALID,91.5631,VALID,0,VALID,23.3127,VALID,66,VALID,0.870703,
2010-09-10, 01:22:04,VALID,1000.12,VALID,0,VALID,91.4486,VALID,0,VALID,23.2915,VALID,66,VALID,0.676172,
2010-09-10, 01:23:04,VALID,1000.11,VALID,0,VALID,91.4028,VALID,0,VALID,23.2915,VALID,66,VALID,0.707422,
2010-09-10, 01:24:04,VALID,1000.16,VALID,0,VALID,91.3647,VALID,0,VALID,23.2719,VALID,66,VALID,0.70625,
2010-09-10, 01:25:04,VALID,1000.18,VALID,0,VALID,91.3113,VALID,0,VALID,23.2719,VALID,66,VALID,0.624609,
2010-09-10, 01:26:04,VALID,1000.16,VALID,0,VALID,91.3876,VALID,0,VALID,23.2507,VALID,76,VALID,0.805859,
2010-09-10, 01:27:04,VALID,1000.17,VALID,0,VALID,91.4257,VALID,0,VALID,23.3127,VALID,76,VALID,0.889844,
2010-09-10, 01:28:04,VALID,1000.12,VALID,0,VALID,91.3418,VALID,0,VALID,23.311,VALID,76,VALID,0.9375,
2010-09-10, 01:29:04,VALID,1000.1,VALID,0,VALID,91.2579,VALID,0,VALID,23.311,VALID,76,VALID,0.886719,
2010-09-10, 01:30:04,VALID,1000.11,VALID,0,VALID,91.1892,VALID,0,VALID,23.3305,VALID,76,VALID,0.917188,
2010-09-10, 01:31:04,VALID,1000.09,VALID,0,VALID,91.1129,VALID,0,VALID,23.3305,VALID,76,VALID,0.736719,
2010-09-10, 01:32:04,VALID,1000.03,VALID,0,VALID,91.174,VALID,0,VALID,23.311,VALID,76,VALID,0.505469,
2010-09-10, 01:33:04,VALID,1000.01,VALID,0,VALID,91.1968,VALID,0,VALID,23.2915,VALID,76,VALID,0.368359,
2010-09-10, 01:34:04,VALID,999.946,VALID,0,VALID,91.2274,VALID,0,VALID,23.2702,VALID,76,VALID,0.132422,
2010-09-10, 01:35:04,VALID,999.899,VALID,0,VALID,91.235,VALID,0,VALID,23.2719,VALID,76,VALID,0,
2010-09-10, 01:36:04,VALID,999.853,VALID,0,VALID,91.2121,VALID,0,VALID,23.2524,VALID,76,VALID,0,
2010-09-10, 01:37:04,VALID,999.806,VALID,0,VALID,91.3037,VALID,0,VALID,23.2329,VALID,76,VALID,0,
2010-09-10, 01:38:04,VALID,999.811,VALID,0,VALID,91.3647,VALID,0,VALID,23.2134,VALID,76,VALID,0,
2010-09-10, 01:39:04,VALID,999.826,VALID,0,VALID,91.4105,VALID,0,VALID,23.2152,VALID,76,VALID,0,
2010-09-10, 01:40:04,VALID,999.777,VALID,0,VALID,91.5173,VALID,0,VALID,23.1939,VALID,76,VALID,0,
2010-09-10, 01:41:04,VALID,999.785,VALID,0,VALID,91.6546,VALID,0,VALID,23.2134,VALID,76,VALID,0.436328,
2010-09-10, 01:42:04,VALID,999.773,VALID,0,VALID,91.8148,VALID,0,VALID,23.2329,VALID,145,VALID,0.603906,
2010-09-10, 01:43:04,VALID,999.765,VALID,0,VALID,91.9064,VALID,0,VALID,23.2329,VALID,145,VALID,0.541406,
2010-09-10, 01:44:04,VALID,999.737,VALID,0,VALID,91.9827,VALID,0,VALID,23.2719,VALID,145,VALID,0.462109,
2010-09-10, 01:45:04,VALID,999.739,VALID,0,VALID,91.792,VALID,0,VALID,23.2524,VALID,145,VALID,0.544141,
2010-09-10, 01:46:04,VALID,999.688,VALID,0,VALID,91.3647,VALID,0,VALID,23.2524,VALID,145,VALID,0.501172,
2010-09-10, 01:47:04,VALID,999.647,VALID,0,VALID,90.884,VALID,0,VALID,23.2932,VALID,145,VALID,0.536328,
2010-09-10, 01:48:04,VALID,999.607,VALID,0,VALID,90.3805,VALID,0,VALID,23.2915,VALID,145,VALID,0.399609,
2010-09-10, 01:49:04,VALID,999.593,VALID,0,VALID,90.0829,VALID,0,VALID,23.311,VALID,145,VALID,0.393359,
2010-09-10, 01:50:04,VALID,999.546,VALID,0,VALID,90.0066,VALID,0,VALID,23.3305,VALID,145,VALID,0.164063,
2010-09-10, 01:51:04,VALID,999.525,VALID,0,VALID,89.999,VALID,0,VALID,23.3518,VALID,145,VALID,0.286328,
2010-09-10, 01:52:04,VALID,999.528,VALID,0,VALID,89.9303,VALID,0,VALID,23.3518,VALID,145,VALID,0.523828,
2010-09-10, 01:53:04,VALID,999.514,VALID,0,VALID,89.8311,VALID,0,VALID,23.3908,VALID,140,VALID,0.612109,
2010-09-10, 01:54:04,VALID,999.512,VALID,0,VALID,89.6709,VALID,0,VALID,23.389,VALID,100,VALID,0.700391,
2010-09-10, 01:55:04,VALID,999.5,VALID,0,VALID,89.5717,VALID,0,VALID,23.4085,VALID,95,VALID,0.717578,
2010-09-10, 01:56:04,VALID,999.499,VALID,0,VALID,89.3963,VALID,0,VALID,23.4298,VALID,79,VALID,0.880078,
2010-09-10, 01:57:04,VALID,999.492,VALID,0,VALID,89.3963,VALID,0,VALID,23.4298,VALID,79,VALID,0.756641,
2010-09-10, 01:58:04,VALID,999.478,VALID,0,VALID,89.4649,VALID,0,VALID,23.389,VALID,85,VALID,0.746094,
2010-09-10, 01:59:04,VALID,999.467,VALID,0,VALID,89.5946,VALID,0,VALID,23.3695,VALID,85,VALID,0.469922,
2010-09-10, 02:00:04,VALID,999.471,VALID,0,VALID,89.7472,VALID,0,VALID,23.35,VALID,85,VALID,0.4375,
2010-09-10, 02:01:04,VALID,999.472,VALID,0,VALID,89.9074,VALID,0,VALID,23.35,VALID,85,VALID,0.366406,
2010-09-10, 02:02:04,VALID,999.452,VALID,0,VALID,90.2126,VALID,0,VALID,23.35,VALID,50,VALID,0.685547,
2010-09-10, 02:03:04,VALID,999.489,VALID,0,VALID,90.3118,VALID,0,VALID,23.3305,VALID,44,VALID,0.596484,
2010-09-10, 02:04:04,VALID,999.452,VALID,0,VALID,90.3957,VALID,0,VALID,23.311,VALID,44,VALID,0.646094,
2010-09-10, 02:05:04,VALID,999.445,VALID,0,VALID,90.5636,VALID,0,VALID,23.2915,VALID,25,VALID,0.803906,
2010-09-10, 02:06:04,VALID,999.431,VALID,0,VALID,90.8688,VALID,0,VALID,23.2915,VALID,22,VALID,0.717969,
2010-09-10, 02:07:04,VALID,999.398,VALID,0,VALID,90.9832,VALID,0,VALID,23.2915,VALID,20,VALID,0.642187,
2010-09-10, 02:08:04,VALID,999.369,VALID,0,VALID,91.0595,VALID,0,VALID,23.2719,VALID,18,VALID,0.383984,
2010-09-10, 02:09:04,VALID,999.366,VALID,0,VALID,91.174,VALID,0,VALID,23.2524,VALID,18,VALID,0.00195313,
2010-09-10, 02:10:04,VALID,999.327,VALID,0,VALID,91.235,VALID,0,VALID,23.2524,VALID,18,VALID,0.11875,
2010-09-10, 02:11:04,VALID,999.339,VALID,0,VALID,91.3494,VALID,0,VALID,23.2312,VALID,18,VALID,0.287109,
2010-09-10, 02:12:04,VALID,999.292,VALID,0,VALID,91.4486,VALID,0,VALID,23.2524,VALID,18,VALID,0,
2010-09-10, 02:13:04,VALID,999.303,VALID,0,VALID,91.4257,VALID,0,VALID,23.2524,VALID,18,VALID,0,
2010-09-10, 02:14:04,VALID,999.242,VALID,0,VALID,91.4639,VALID,0,VALID,23.2524,VALID,18,VALID,0,
2010-09-10, 02:15:04,VALID,999.212,VALID,0,VALID,91.5249,VALID,0,VALID,23.2312,VALID,18,VALID,0,
2010-09-10, 02:16:04,VALID,999.203,VALID,0,VALID,91.5249,VALID,0,VALID,23.2932,VALID,18,VALID,0,
2010-09-10, 02:17:04,VALID,999.182,VALID,0,VALID,91.4868,VALID,0,VALID,23.2524,VALID,18,VALID,0,
2010-09-10, 02:18:04,VALID,999.144,VALID,0,VALID,91.4944,VALID,0,VALID,23.2932,VALID,355,VALID,0,
2010-09-10, 02:19:04,VALID,999.115,VALID,0,VALID,91.5249,VALID,0,VALID,23.2915,VALID,343,VALID,0,
2010-09-10, 02:20:04,VALID,999.09,VALID,0,VALID,91.5249,VALID,0,VALID,23.2915,VALID,340,VALID,0.751953,
2010-09-10, 02:21:04,VALID,999.123,VALID,0,VALID,91.5249,VALID,0,VALID,23.2524,VALID,340,VALID,0.580859,
2010-09-10, 02:22:04,VALID,999.119,VALID,0,VALID,91.5478,VALID,0,VALID,23.2524,VALID,340,VALID,0.358594,
2010-09-10, 02:23:04,VALID,999.132,VALID,0,VALID,91.586,VALID,0,VALID,23.2329,VALID,340,VALID,0.169141,
2010-09-10, 02:24:04,VALID,999.123,VALID,0,VALID,91.586,VALID,0,VALID,23.2347,VALID,340,VALID,0.106641,
2010-09-10, 02:25:04,VALID,999.133,VALID,0,VALID,91.6088,VALID,0,VALID,23.1939,VALID,340,VALID,0,
2010-09-10, 02:26:04,VALID,999.149,VALID,0,VALID,91.6088,VALID,0,VALID,23.1744,VALID,340,VALID,0.230859,
2010-09-10, 02:27:04,VALID,999.168,VALID,0,VALID,91.6546,VALID,0,VALID,23.1354,VALID,340,VALID,0.446484,
2010-09-10, 02:28:04,VALID,999.208,VALID,0,VALID,91.7767,VALID,0,VALID,23.1159,VALID,340,VALID,0.574219,
2010-09-10, 02:29:04,VALID,999.19,VALID,0,VALID,91.8911,VALID,0,VALID,23.1159,VALID,340,VALID,0.651563,
2010-09-10, 02:30:04,VALID,999.219,VALID,0,VALID,92.0209,VALID,0,VALID,23.1159,VALID,340,VALID,0.649219,
2010-09-10, 02:31:04,VALID,999.226,VALID,0,VALID,92.1124,VALID,0,VALID,23.1159,VALID,15,VALID,0.705078,
2010-09-10, 02:32:04,VALID,999.212,VALID,0,VALID,92.1277,VALID,0,VALID,23.0751,VALID,78,VALID,0.83125,
2010-09-10, 02:33:04,VALID,999.169,VALID,0,VALID,92.12,VALID,0,VALID,23.0751,VALID,98,VALID,0.733984,
2010-09-10, 02:34:04,VALID,999.177,VALID,0,VALID,92.0743,VALID,0,VALID,23.0964,VALID,107,VALID,0.778906,
2010-09-10, 02:35:04,VALID,999.148,VALID,0,VALID,92.1048,VALID,0,VALID,23.0946,VALID,107,VALID,0.755859,
2010-09-10, 02:36:04,VALID,999.16,VALID,0,VALID,92.1734,VALID,0,VALID,23.1141,VALID,107,VALID,0.571875,
2010-09-10, 02:37:04,VALID,999.127,VALID,0,VALID,92.2116,VALID,0,VALID,23.1354,VALID,107,VALID,0.394922,
2010-09-10, 02:38:04,VALID,999.149,VALID,0,VALID,92.265,VALID,0,VALID,23.1354,VALID,107,VALID,0.392578,
2010-09-10, 02:39:04,VALID,999.194,VALID,0,VALID,92.2955,VALID,0,VALID,23.1354,VALID,107,VALID,0.367578,
2010-09-10, 02:40:04,VALID,999.2,VALID,0,VALID,92.3718,VALID,0,VALID,23.1354,VALID,107,VALID,0.390625,
2010-09-10, 02:41:04,VALID,999.218,VALID,0,VALID,92.4328,VALID,0,VALID,23.1354,VALID,107,VALID,0.414063,
2010-09-10, 02:42:04,VALID,999.263,VALID,0,VALID,92.4252,VALID,0,VALID,23.1159,VALID,107,VALID,0.381641,
2010-09-10, 02:43:04,VALID,999.283,VALID,0,VALID,92.4176,VALID,0,VALID,23.0964,VALID,107,VALID,0.538281,
2010-09-10, 02:44:04,VALID,999.302,VALID,0,VALID,92.4405,VALID,0,VALID,23.1159,VALID,107,VALID,0.627734,
2010-09-10, 02:45:04,VALID,999.32,VALID,0,VALID,92.3871,VALID,0,VALID,23.1159,VALID,107,VALID,0.717969,
2010-09-10, 02:46:04,VALID,999.368,VALID,0,VALID,92.3413,VALID,0,VALID,23.1354,VALID,132,VALID,0.80625,
2010-09-10, 02:47:04,VALID,999.358,VALID,0,VALID,92.265,VALID,0,VALID,23.1159,VALID,158,VALID,1.18125,
2010-09-10, 02:48:04,VALID,999.376,VALID,0,VALID,92.1124,VALID,0,VALID,23.1549,VALID,167,VALID,1.7918,
2010-09-10, 02:49:04,VALID,999.375,VALID,0,VALID,91.792,VALID,0,VALID,23.1939,VALID,168,VALID,1.16758,
2010-09-10, 02:50:04,VALID,999.346,VALID,0,VALID,91.4486,VALID,0,VALID,23.2719,VALID,179,VALID,1.48359,
2010-09-10, 02:51:04,VALID,999.341,VALID,0,VALID,91.1434,VALID,0,VALID,23.3305,VALID,179,VALID,0.978516,
2010-09-10, 02:52:04,VALID,999.34,VALID,0,VALID,90.8917,VALID,0,VALID,23.3695,VALID,188,VALID,0.78125,
2010-09-10, 02:53:04,VALID,999.3,VALID,0,VALID,90.6094,VALID,0,VALID,23.428,VALID,195,VALID,0.707812,
2010-09-10, 02:54:04,VALID,999.31,VALID,0,VALID,90.3194,VALID,0,VALID,23.4671,VALID,253,VALID,0.56875,
2010-09-10, 02:55:04,VALID,999.27,VALID,0,VALID,90.2355,VALID,0,VALID,23.4866,VALID,269,VALID,0.677734,
2010-09-10, 02:56:04,VALID,999.258,VALID,0,VALID,90.1363,VALID,0,VALID,23.4458,VALID,269,VALID,0.686328,
2010-09-10, 02:57:04,VALID,999.255,VALID,0,VALID,90.1134,VALID,0,VALID,23.4458,VALID,269,VALID,0.446094,
2010-09-10, 02:58:04,VALID,999.198,VALID,0,VALID,90.0524,VALID,0,VALID,23.4866,VALID,269,VALID,0.533984,
2010-09-10, 02:59:04,VALID,999.147,VALID,0,VALID,89.9685,VALID,0,VALID,23.4866,VALID,269,VALID,0.649609,
2010-09-10, 03:00:04,VALID,999.133,VALID,0,VALID,89.9609,VALID,0,VALID,23.4671,VALID,269,VALID,0.769531,
2010-09-10, 03:01:04,VALID,999.13,VALID,0,VALID,89.999,VALID,0,VALID,23.4671,VALID,269,VALID,0.500391,
2010-09-10, 03:02:04,VALID,999.141,VALID,0,VALID,90.0829,VALID,0,VALID,23.4475,VALID,269,VALID,0.235938,
2010-09-10, 03:03:04,VALID,999.185,VALID,0,VALID,90.0906,VALID,0,VALID,23.428,VALID,269,VALID,0,
2010-09-10, 03:04:04,VALID,999.217,VALID,0,VALID,90.1745,VALID,0,VALID,23.4085,VALID,269,VALID,0.0890625,
2010-09-10, 03:05:04,VALID,999.291,VALID,0,VALID,90.2355,VALID,0,VALID,23.3695,VALID,269,VALID,0.370703,
2010-09-10, 03:06:04,VALID,999.289,VALID,0,VALID,90.3118,VALID,0,VALID,23.3305,VALID,269,VALID,0.724609,
2010-09-10, 03:07:04,VALID,999.323,VALID,0,VALID,90.4949,VALID,0,VALID,23.2897,VALID,87,VALID,1.07773,
2010-09-10, 03:08:04,VALID,999.345,VALID,0,VALID,90.5102,VALID,0,VALID,23.2719,VALID,87,VALID,0.849219,
2010-09-10, 03:09:04,VALID,999.358,VALID,0,VALID,90.2889,VALID,0,VALID,23.2524,VALID,87,VALID,0.845703,
2010-09-10, 03:10:04,VALID,999.34,VALID,0,VALID,90.2355,VALID,0,VALID,23.2524,VALID,93,VALID,0.939062,
2010-09-10, 03:11:04,VALID,999.348,VALID,0,VALID,90.1897,VALID,0,VALID,23.2524,VALID,102,VALID,0.839844,
2010-09-10, 03:12:04,VALID,999.338,VALID,0,VALID,90.0982,VALID,0,VALID,23.2134,VALID,108,VALID,0.515234,
2010-09-10, 03:13:04,VALID,999.356,VALID,0,VALID,90.1211,VALID,0,VALID,23.2312,VALID,108,VALID,0.704687,
2010-09-10, 03:14:04,VALID,999.356,VALID,0,VALID,90.1211,VALID,0,VALID,23.2329,VALID,108,VALID,0.497656,
2010-09-10, 03:15:04,VALID,999.333,VALID,0,VALID,90.2737,VALID,0,VALID,23.2134,VALID,103,VALID,0.753906,
2010-09-10, 03:16:04,VALID,999.293,VALID,0,VALID,90.4263,VALID,0,VALID,23.1939,VALID,103,VALID,0.714063,
2010-09-10, 03:17:04,VALID,999.353,VALID,0,VALID,90.556,VALID,0,VALID,23.1744,VALID,103,VALID,0.648438,
2010-09-10, 03:18:04,VALID,999.3,VALID,0,VALID,90.7009,VALID,0,VALID,23.1744,VALID,103,VALID,0.623828,
2010-09-10, 03:19:04,VALID,999.262,VALID,0,VALID,90.8764,VALID,0,VALID,23.1744,VALID,103,VALID,0.623438,
2010-09-10, 03:20:04,VALID,999.271,VALID,0,VALID,91.029,VALID,0,VALID,23.1744,VALID,103,VALID,0.619141,
2010-09-10, 03:21:04,VALID,999.295,VALID,0,VALID,91.09,VALID,0,VALID,23.1939,VALID,103,VALID,0.655469,
2010-09-10, 03:22:04,VALID,999.294,VALID,0,VALID,91.0366,VALID,0,VALID,23.1939,VALID,103,VALID,0.660937,
2010-09-10, 03:23:04,VALID,999.294,VALID,0,VALID,91.029,VALID,0,VALID,23.1939,VALID,103,VALID,0.632031,
2010-09-10, 03:24:04,VALID,999.32,VALID,0,VALID,90.9603,VALID,0,VALID,23.2134,VALID,103,VALID,0.648438,
2010-09-10, 03:25:04,VALID,999.309,VALID,0,VALID,90.8764,VALID,0,VALID,23.2134,VALID,103,VALID,0.5625,
2010-09-10, 03:26:04,VALID,999.323,VALID,0,VALID,90.8001,VALID,0,VALID,23.2134,VALID,103,VALID,0.459766,
2010-09-10, 03:27:04,VALID,999.337,VALID,0,VALID,90.762,VALID,0,VALID,23.1939,VALID,103,VALID,0.361328,
2010-09-10, 03:28:04,VALID,999.305,VALID,0,VALID,90.7467,VALID,0,VALID,23.1939,VALID,103,VALID,0.276563,
2010-09-10, 03:29:04,VALID,999.294,VALID,0,VALID,90.7085,VALID,0,VALID,23.1939,VALID,103,VALID,0.0453125,
2010-09-10, 03:30:04,VALID,999.283,VALID,0,VALID,90.7467,VALID,0,VALID,23.1939,VALID,103,VALID,0.0132813,
2010-09-10, 03:31:04,VALID,999.24,VALID,0,VALID,90.8077,VALID,0,VALID,23.1744,VALID,103,VALID,0.222656,
2010-09-10, 03:32:04,VALID,999.191,VALID,0,VALID,90.8764,VALID,0,VALID,23.1939,VALID,103,VALID,0.314453,
2010-09-10, 03:33:04,VALID,999.188,VALID,0,VALID,90.8459,VALID,0,VALID,23.1939,VALID,146,VALID,0.540234,
2010-09-10, 03:34:04,VALID,999.16,VALID,0,VALID,90.6933,VALID,0,VALID,23.1939,VALID,155,VALID,0.910547,
2010-09-10, 03:35:04,VALID,999.165,VALID,0,VALID,90.205,VALID,0,VALID,23.2524,VALID,155,VALID,1.05508,
2010-09-10, 03:36:04,VALID,999.176,VALID,0,VALID,89.8693,VALID,0,VALID,23.2915,VALID,148,VALID,1.27695,
2010-09-10, 03:37:04,VALID,999.136,VALID,0,VALID,89.5412,VALID,0,VALID,23.3305,VALID,149,VALID,1.23672,
2010-09-10, 03:38:04,VALID,999.16,VALID,0,VALID,89.3963,VALID,0,VALID,23.35,VALID,147,VALID,1.27266,
2010-09-10, 03:39:04,VALID,999.161,VALID,0,VALID,89.2208,VALID,0,VALID,23.389,VALID,141,VALID,1.17617,
2010-09-10, 03:40:04,VALID,999.161,VALID,0,VALID,89.114,VALID,0,VALID,23.3695,VALID,140,VALID,1.07422,
2010-09-10, 03:41:04,VALID,999.182,VALID,0,VALID,89.175,VALID,0,VALID,23.35,VALID,136,VALID,1.12344,
2010-09-10, 03:42:04,VALID,999.198,VALID,0,VALID,89.2513,VALID,0,VALID,23.3305,VALID,136,VALID,0.992969,
2010-09-10, 03:43:04,VALID,999.206,VALID,0,VALID,89.3734,VALID,0,VALID,23.3305,VALID,135,VALID,0.934766,
2010-09-10, 03:44:04,VALID,999.224,VALID,0,VALID,89.3657,VALID,0,VALID,23.311,VALID,135,VALID,0.602734,
2010-09-10, 03:45:04,VALID,999.189,VALID,0,VALID,89.5412,VALID,0,VALID,23.2524,VALID,135,VALID,0.641797,
2010-09-10, 03:46:04,VALID,999.242,VALID,0,VALID,89.7472,VALID,0,VALID,23.2524,VALID,135,VALID,0.555469,
2010-09-10, 03:47:04,VALID,999.232,VALID,0,VALID,89.9074,VALID,0,VALID,23.2329,VALID,135,VALID,0.499219,